Location: Drummondville
(45.8830°N, 72.4830°W)
Time: 21:11:23
(UTC-05:00)

Vanguard 2 Rocket - All Passes

Search period start: 17 January 2018 00:00
Search period end: 27 January 2018 00:00
Orbit: 556 x 3326 km, 32.9° (Epoch: 16 January)

Date Brightness Start Highest point End Pass type
(mag) Time Alt. Az. Time Alt. Az. Time Alt. Az.
17 Jan - 07:25:15 10° S 07:29:14 13° SSE 07:32:30 10° SE daylight
17 Jan - 09:37:15 10° SW 09:42:10 20° S 09:45:50 10° SE daylight
17 Jan - 11:51:28 10° SW 11:54:18 15° SSW 11:56:47 10° SSE daylight
18 Jan - 06:26:31 10° S 06:29:39 12° SSE 06:32:23 10° SE visible
18 Jan - 08:37:03 10° SW 08:43:00 21° S 08:47:16 10° SE daylight
18 Jan - 10:51:15 10° SW 10:55:27 20° S 10:58:44 10° SE daylight
19 Jan - 07:36:48 10° SSW 07:43:38 20° SSE 07:48:30 10° ESE daylight
19 Jan - 09:50:53 10° SW 09:56:29 23° S 10:00:30 10° SE daylight
19 Jan - 12:06:18 10° SW 12:08:26 13° SSW 12:10:22 10° S daylight
20 Jan - 06:36:40 10° SSW 06:44:02 19° SSE 06:49:25 10° ESE visible
20 Jan - 08:50:17 10° SW 08:57:21 26° S 09:02:07 10° SE daylight
20 Jan - 11:05:32 10° WSW 11:09:38 19° SSW 11:12:52 10° SSE daylight
21 Jan - 05:36:55 10° S 05:44:12 17° SSE 05:49:48 10° ESE visible
21 Jan - 07:49:32 10° SW 07:57:59 27° S 08:03:33 10° ESE daylight
21 Jan - 10:04:50 10° WSW 10:10:44 24° SSW 10:14:52 10° SE daylight
22 Jan - 04:38:04 10° S 04:44:11 14° SSE 04:49:15 10° SE visible
22 Jan - 06:48:45 10° SW 06:58:22 26° SSE 07:04:47 10° ESE visible
22 Jan - 09:03:57 10° WSW 09:11:38 29° S 09:16:39 10° SE daylight
22 Jan - 11:20:10 10° WSW 11:23:42 16° SSW 11:26:35 10° SSE daylight
23 Jan - 03:42:30 10° SSE 03:43:59 10° SSE 03:45:25 10° SE visible
23 Jan - 05:48:07 10° SSW 05:58:31 24° SSE 06:05:41 10° ESE visible
23 Jan - 08:02:50 10° SW 08:12:18 32° S 08:18:15 10° ESE daylight
23 Jan - 10:19:03 10° WSW 10:24:53 23° SSW 10:29:00 10° SSE daylight
24 Jan - 04:47:54 10° SSW 04:58:24 21° SSE 05:06:05 10° ESE visible
24 Jan - 07:01:37 10° SW 07:12:41 32° S 07:19:38 10° ESE daylight
24 Jan - 09:17:53 10° WSW 09:25:51 30° SSW 09:30:59 10° SE daylight
24 Jan - 11:35:37 10° SW 11:37:37 12° SSW 11:39:23 10° SSW daylight
25 Jan - 03:48:27 10° S 03:58:07 18° SSE 04:05:45 10° ESE visible
25 Jan - 06:00:26 10° SW 06:12:47 32° SSE 06:20:45 10° ESE visible
25 Jan - 08:16:30 10° WSW 08:26:33 35° S 08:32:43 10° ESE daylight
25 Jan - 10:33:34 10° WSW 10:38:52 19° SSW 10:42:46 10° SSE daylight
26 Jan - 02:50:31 10° SSE 02:57:42 14° SE 03:03:56 10° ESE visible
26 Jan - 04:59:29 10° SSW 05:12:36 29° SSE 05:21:31 10° ESE visible
26 Jan - 07:14:57 10° WSW 07:26:56 37° S 07:34:12 10° ESE daylight
26 Jan - 09:32:03 10° WSW 09:39:56 28° SSW 09:45:06 10° SE daylight
